Location: Unspecified
(40.7945°N, 0.0000°E)
Time: 04:08:31
(UTC+00:00)

Courier 1B - Pass Details

Date: 23 January 2021
Orbit: 962 x 1209 km, 28.3° (Epoch: 25 February)

Event Time Altitude Azimuth Distance (km) Brightness Sun altitude
Rises 01:39:46 0° 246° (WSW) 3,657 - -61.6°
Reaches altitude 10° 01:42:49 10° 235° (SW) 2,694 - -61.1°
Maximum altitude 01:48:06 27° 180° (S) 1,754 - -60.4°
Drops below altitude 10° 01:53:24 10° 124° (SE) 2,699 - -59.6°
Sets 01:56:27 0° 113° (ESE) 3,665 - -59.1°
